KN6KS Weather Reports


time (UTC)temp
F
wind
direction
speed
knots
gust
knots
rain 1hr
in
rain 24hr
in
rain mn
in
humidity
%
barometer
mb
20260506232841 83 89 2.6 2.6 0.00 0.00 0.00 22 1014.2
20260506232336 82 83 4.3 6.1 0.00 0.00 0.00 22 1014.4
20260506231832 82 81 4.3 5.2 0.00 0.00 0.00 22 1014.5
20260506231330 82 71 3.5 5.2 0.00 0.00 0.00 23 1014.4
20260506230828 82 84 3.5 4.3 0.00 0.00 0.00 22 1014.3
20260506230325 82 50 2.6 2.6 0.00 0.00 0.00 22 1014.4
20260506225821 81 79 3.5 4.3 0.00 0.00 0.00 23 1014.5
20260506225318 81 56 7.8 9.6 0.00 0.00 0.00 22 1014.3
20260506224815 82 34 4.3 6.1 0.00 0.00 0.00 23 1014.6
20260506224312 82 74 7.0 7.8 0.00 0.00 0.00 22 1014.6
20260506223808 81 189 0.9 0.9 0.00 0.00 0.00 23 1014.5
20260506223303 81 46 2.6 2.6 0.00 0.00 0.00 22 1014.5
20260506222801 82 75 4.3 7.0 0.00 0.00 0.00 23 1014.8
20260506222256 83 45 3.5 5.2 0.00 0.00 0.00 22 1014.8
20260506221754 82 95 3.5 5.2 0.00 0.00 0.00 22 1014.9
20260506221252 82 109 1.7 5.2 0.00 0.00 0.00 22 1014.9
20260506220749 84 55 1.7 1.7 0.00 0.00 0.00 23 1014.9
20260506220244 83 195 1.7 1.7 0.00 0.00 0.00 23 1014.9
20260506215741 80 53 2.6 2.6 0.00 0.00 0.00 24 1015.0
20260506215237 82 351 4.3 5.2 0.00 0.00 0.00 24 1015.2
20260506214733 81 63 2.6 4.3 0.00 0.00 0.00 23 1015.4
20260506214231 81 56 3.5 6.1 0.00 0.00 0.00 24 1015.5
20260506213728 80 230 0.9 0.9 0.00 0.00 0.00 26 1015.5
20260506213225 80 16 8.7 9.6 0.00 0.00 0.00 25 1015.5
20260506212723 79 247 1.7 1.7 0.00 0.00 0.00 26 1015.3
20260506212218 79 38 6.1 7.0 0.00 0.00 0.00 25 1015.5
20260506211714 80 273 0.0 0.9 0.00 0.00 0.00 25 1015.5
20260506211210 80 103 6.1 9.6 0.00 0.00 0.00 25 1015.5
20260506210707 81 85 1.7 2.6 0.00 0.00 0.00 25 1015.5
20260506210204 81 184 3.5 5.2 0.00 0.00 0.00 25 1015.6
20260506205701 81 216 2.6 4.3 0.00 0.00 0.00 24 1015.8
20260506205156 81 160 3.5 4.3 0.00 0.00 0.00 24 1015.5
20260506204654 79 36 2.6 2.6 0.00 0.00 0.00 27 1015.7
20260506204151 79 91 3.5 5.2 0.00 0.00 0.00 26 1015.7
20260506203649 80 92 2.6 4.3 0.00 0.00 0.00 26 1015.7
20260506203146 78 231 2.6 5.2 0.00 0.00 0.00 27 1015.7
20260506202644 79 99 3.5 6.1 0.00 0.00 0.00 27 1015.9
20260506202139 80 52 1.7 2.6 0.00 0.00 0.00 26 1015.7
20260506201636 78 59 4.3 5.2 0.00 0.00 0.00 27 1015.9
20260506201133 79 140 2.6 2.6 0.00 0.00 0.00 26 1016.1
20260506200630 79 98 3.5 4.3 0.00 0.00 0.00 26 1016.0
20260506200126 79 162 2.6 2.6 0.00 0.00 0.00 26 1016.1
20260506195623 78 57 3.5 4.3 0.00 0.00 0.00 27 1015.9
20260506195119 78 37 4.3 7.0 0.00 0.00 0.00 27 1015.9
20260506194617 78 57 5.2 5.2 0.00 0.00 0.00 26 1016.1
20260506194113 77 298 1.7 1.7 0.00 0.00 0.00 30 1015.9
20260506193611 77 94 1.7 1.7 0.00 0.00 0.00 29 1016.1
20260506193108 77 256 0.0 0.9 0.00 0.00 0.00 29 1016.2
20260506192605 76 223 0.0 0.0 0.00 0.00 0.00 29 1015.9
20260506192101 78 354 1.7 1.7 0.00 0.00 0.00 30 1016.2
20260506191557 77 229 3.5 4.3 0.00 0.00 0.00 31 1015.9
20260506191053 75 78 3.5 4.3 0.00 0.00 0.00 30 1016.2
20260506190551 75 237 0.0 0.9 0.00 0.00 0.00 30 1016.3
20260506190048 75 234 3.5 4.3 0.00 0.00 0.00 31 1016.2
20260506185545 75 313 1.7 1.7 0.00 0.00 0.00 30 1016.3
20260506185041 75 357 1.7 4.3 0.00 0.00 0.00 32 1016.6
20260506184539 74 259 0.9 0.9 0.00 0.00 0.00 32 1016.3
20260506184036 74 24 3.5 5.2 0.00 0.00 0.00 33 1016.4
20260506183532 74 343 6.1 7.8 0.00 0.00 0.00 32 1016.7
20260506183029 74 252 2.6 2.6 0.00 0.00 0.00 32 1016.4
20260506182526 74 49 2.6 2.6 0.00 0.00 0.00 33 1016.8
20260506182023 72 229 0.0 0.9 0.00 0.00 0.00 31 1016.8
20260506181521 73 282 0.9 0.9 0.00 0.00 0.00 32 1016.7
20260506181018 72 308 2.6 2.6 0.00 0.00 0.00 34 1016.7
20260506180514 72 309 3.5 4.3 0.00 0.00 0.00 33 1016.4
20260506180011 72 327 1.7 1.7 0.00 0.00 0.00 38 1016.7
20260506175508 71 113 0.9 1.7 0.00 0.00 0.00 38 1016.9
20260506175004 71 106 2.6 4.3 0.00 0.00 0.00 38 1016.8
20260506174502 71 206 2.6 4.3 0.00 0.00 0.00 36 1016.8
20260506173958 71 159 4.3 5.2 0.00 0.00 0.00 36 1016.7
20260506173456 71 173 4.3 8.7 0.00 0.00 0.00 38 1016.8
20260506172952 70 168 2.6 2.6 0.00 0.00 0.00 38 1017.0
20260506172450 70 166 2.6 2.6 0.00 0.00 0.00 37 1016.8
20260506171946 68 240 2.6 4.3 0.00 0.00 0.00 41 1017.0
20260506171444 67 245 0.9 0.9 0.00 0.00 0.00 42 1016.8
20260506170941 67 193 3.5 5.2 0.00 0.00 0.00 43 1017.1
20260506170437 67 223 1.7 1.7 0.00 0.00 0.00 43 1017.1
20260506165930 67 201 3.5 4.3 0.00 0.00 0.00 43 1017.0
20260506165429 66 268 1.7 2.6 0.00 0.00 0.00 43 1017.0
20260506164924 65 120 1.7 1.7 0.00 0.00 0.00 44 1017.0
20260506164421 65 38 2.6 2.6 0.00 0.00 0.00 44 1017.1
20260506163914 65 242 2.6 2.6 0.00 0.00 0.00 45 1017.1
20260506163414 67 241 0.9 1.7 0.00 0.00 0.00 44 1017.0
20260506162908 66 178 2.6 4.3 0.00 0.00 0.00 44 1017.1
20260506162407 66 231 0.0 0.9 0.00 0.00 0.00 45 1017.1
20260506161858 65 226 0.0 0.9 0.00 0.00 0.00 45 1017.1
20260506161355 64 208 1.7 1.7 0.00 0.00 0.00 45 1017.0
20260506160854 66 39 1.7 2.6 0.00 0.00 0.00 45 1017.1
20260506160350 65 265 0.0 0.9 0.00 0.00 0.00 45 1017.2
20260506155848 63 189 1.7 1.7 0.00 0.00 0.00 48 1017.0
20260506155345 63 116 1.7 1.7 0.00 0.00 0.00 47 1017.0
20260506153502 62 108 2.6 2.6 0.00 0.00 0.00 49 1017.1
20260506153000 61 152 2.6 2.6 0.00 0.00 0.00 52 1017.0
20260506152456 61 162 2.6 2.6 0.00 0.00 0.00 52 1017.0
20260506151954 60 112 1.7 2.6 0.00 0.00 0.00 53 1017.0
20260506151452 60 121 1.7 1.7 0.00 0.00 0.00 54 1017.1
20260506150949 60 226 0.0 1.7 0.00 0.00 0.00 54 1017.2
20260506150445 59 123 3.5 4.3 0.00 0.00 0.00 55 1017.1
20260506145942 59 138 2.6 4.3 0.00 0.00 0.00 56 1017.2
20260506145438 58 107 0.0 0.9 0.00 0.00 0.00 57 1017.0
20260506144936 58 118 3.5 4.3 0.00 0.00 0.00 58 1017.2
20260506144432 57 103 3.5 4.3 0.00 0.00 0.00 59 1016.8
20260506143931 57 114 3.5 4.3 0.00 0.00 0.00 61 1016.8
20260506143428 57 112 1.7 1.7 0.00 0.00 0.00 62 1016.8
20260506142926 57 79 0.0 0.9 0.00 0.00 0.00 62 1017.0
20260506142424 57 219 0.0 0.0 0.00 0.00 0.00 63 1016.8
20260506141921 56 207 0.0 0.0 0.00 0.00 0.00 62 1016.9
20260506141419 55 214 0.0 0.0 0.00 0.00 0.00 63 1016.6
20260506140917 55 230 0.0 0.0 0.00 0.00 0.00 63 1016.8
20260506140414 53 230 0.0 0.0 0.00 0.00 0.00 68 1016.8
20260506135911 52 228 0.0 0.0 0.00 0.00 0.00 68 1016.7
20260506135408 52 213 0.0 0.0 0.00 0.00 0.00 70 1016.8
20260506134904 51 213 0.0 0.0 0.00 0.00 0.00 71 1016.7
20260506134400 51 213 0.0 0.0 0.00 0.00 0.00 71 1016.3
20260506133857 51 213 0.0 0.0 0.00 0.00 0.00 70 1016.4
20260506133354 51 213 0.0 0.0 0.00 0.00 0.00 71 1016.4
20260506132850 51 213 0.9 0.9 0.00 0.00 0.00 72 1016.2
20260506132348 50 210 0.0 0.0 0.00 0.00 0.00 72 1016.2
20260506131846 50 202 0.0 0.0 0.00 0.00 0.00 72 1016.2
20260506131342 50 220 0.0 0.0 0.00 0.00 0.00 72 1016.0
20260506130839 50 211 0.0 0.0 0.00 0.00 0.00 71 1016.2
20260506130335 49 221 0.9 1.7 0.00 0.00 0.00 73 1016.0
20260506125833 50 196 1.7 1.7 0.00 0.00 0.00 73 1015.9
20260506125332 50 191 1.7 2.6 0.00 0.00 0.00 73 1016.0
20260506124830 50 211 1.7 1.7 0.00 0.00 0.00 74 1016.3
20260506124326 50 198 1.7 1.7 0.00 0.00 0.00 73 1016.2
20260506123824 50 216 1.7 1.7 0.00 0.00 0.00 72 1016.3
20260506123322 49 222 0.0 0.0 0.00 0.00 0.00 74 1016.2
20260506122819 50 223 0.0 0.0 0.00 0.00 0.00 74 1016.1
20260506122316 49 225 0.0 0.0 0.00 0.00 0.00 75 1016.2
20260506121814 49 226 0.0 0.0 0.00 0.00 0.00 75 1016.0
20260506121311 49 225 0.0 0.0 0.00 0.00 0.00 74 1015.9
20260506120808 50 226 0.0 0.0 0.00 0.00 0.00 73 1015.8
20260506120306 50 196 0.0 0.0 0.00 0.00 0.00 72 1015.9
20260506115803 50 215 0.0 0.0 0.00 0.00 0.00 72 1016.0
20260506115306 51 217 0.0 0.0 0.00 0.00 0.00 71 1015.9
20260506114759 51 226 0.0 0.0 0.00 0.00 0.00 70 1015.9
20260506114256 50 220 0.0 0.0 0.00 0.00 0.00 71 1015.7
20260506113755 50 272 0.0 0.0 0.00 0.00 0.00 71 1015.7
20260506113252 51 169 1.7 1.7 0.00 0.00 0.00 70 1015.7
20260506112748 52 225 0.0 0.0 0.00 0.00 0.00 68 1015.7
20260506112246 52 232 0.0 0.0 0.00 0.00 0.00 67 1015.7
20260506111743 53 244 0.0 0.0 0.00 0.00 0.00 66 1015.8
20260506111241 52 257 2.6 2.6 0.00 0.00 0.00 67 1015.7
20260506110737 52 229 1.7 1.7 0.00 0.00 0.00 67 1015.6
20260506110235 53 262 1.7 1.7 0.00 0.00 0.00 67 1015.5
20260506105732 53 277 2.6 2.6 0.00 0.00 0.00 66 1015.8
20260506105229 53 255 2.6 2.6 0.00 0.00 0.00 66 1015.6
20260506104727 53 325 1.7 2.6 0.00 0.00 0.00 66 1015.6
20260506104224 53 252 0.0 0.9 0.00 0.00 0.00 66 1015.6
20260506103721 53 247 0.0 0.9 0.00 0.00 0.00 67 1015.6
20260506103218 53 251 0.9 0.9 0.00 0.00 0.00 66 1015.4
20260506102716 53 248 4.3 5.2 0.00 0.00 0.00 65 1015.5
20260506102214 53 217 4.3 4.3 0.00 0.00 0.00 66 1015.6
20260506101710 53 257 4.3 5.2 0.00 0.00 0.00 65 1015.5
20260506101207 53 233 8.7 9.6 0.00 0.00 0.00 66 1015.6
20260506100705 53 260 4.3 5.2 0.00 0.00 0.00 66 1015.4
20260506100203 53 273 7.0 7.8 0.00 0.00 0.00 66 1015.6
20260506095701 53 256 8.7 9.6 0.00 0.00 0.00 66 1015.4
20260506095157 53 218 11.3 13.0 0.00 0.00 0.00 67 1015.5
20260506094655 53 222 7.8 8.7 0.00 0.00 0.00 67 1015.4
20260506094152 53 232 9.6 11.3 0.00 0.00 0.00 67 1015.4
20260506093651 53 213 7.8 8.7 0.00 0.00 0.00 67 1015.5
20260506093148 53 227 9.6 12.2 0.00 0.00 0.00 66 1015.4
20260506092646 53 245 8.7 11.3 0.00 0.00 0.00 67 1015.5
20260506092143 53 211 7.0 7.8 0.00 0.00 0.00 68 1015.4
20260506091640 53 257 6.1 7.0 0.00 0.00 0.00 68 1015.3
20260506091138 53 240 7.8 7.8 0.00 0.00 0.00 68 1015.4
20260506090636 53 285 7.8 11.3 0.00 0.00 0.00 68 1015.3
20260506090132 53 218 10.4 12.2 0.00 0.00 0.00 67 1015.3
20260506085629 53 244 7.8 13.0 0.00 0.00 0.00 68 1015.4
20260506085125 53 222 9.6 11.3 0.00 0.00 0.00 67 1015.7
20260506084622 53 237 7.8 8.7 0.00 0.00 0.00 67 1015.4
20260506084118 53 262 6.1 7.0 0.00 0.00 0.00 68 1015.7
20260506083615 53 245 7.8 9.6 0.00 0.00 0.00 68 1015.7
20260506083113 53 256 6.1 7.0 0.00 0.00 0.00 67 1015.5
20260506082609 53 252 11.3 13.0 0.00 0.00 0.00 68 1015.6
20260506082105 53 281 8.7 9.6 0.00 0.00 0.00 68 1015.4
20260506081604 53 237 11.3 13.9 0.00 0.00 0.00 68 1015.7
20260506081101 53 242 12.2 15.6 0.00 0.00 0.00 67 1015.5
20260506080558 53 274 13.0 15.6 0.00 0.00 0.00 67 1015.5
20260506073038 53 281 8.7 11.3 0.00 0.00 0.00 67 1015.7
20260506072536 53 187 13.0 14.8 0.00 0.00 0.00 67 1015.6
20260506072034 53 242 9.6 13.9 0.00 0.00 0.00 67 1015.5
20260506071531 53 231 12.2 14.8 0.00 0.00 0.00 67 1015.5
20260506071028 53 280 6.1 7.8 0.00 0.00 0.00 67 1015.3
20260506070525 53 249 6.1 7.8 0.00 0.00 0.00 67 1015.6
20260506062503 54 231 10.4 12.2 0.00 0.00 0.00 65 1015.0
20260506061959 54 224 8.7 9.6 0.00 0.00 0.00 65 1014.7
20260506061455 54 247 9.6 12.2 0.00 0.00 0.00 64 1014.8
20260506060953 54 228 10.4 13.0 0.00 0.00 0.00 65 1014.7
20260506060451 53 260 11.3 13.0 0.00 0.00 0.00 67 1014.9
20260506050920 54 280 14.8 18.2 0.00 0.00 0.00 67 1014.5
20260506050417 54 232 10.4 12.2 0.00 0.00 0.00 67 1014.6
20260506044908 54 234 6.1 7.0 0.00 0.00 0.00 67 1014.5
20260506044406 54 226 13.0 14.8 0.00 0.00 0.00 67 1014.6
20260506043903 54 207 7.0 9.6 0.00 0.00 0.00 67 1014.3
20260506043400 54 232 6.1 7.0 0.00 0.00 0.00 68 1014.2
20260506042858 54 255 7.8 9.6 0.00 0.00 0.00 68 1014.1
20260506042357 54 247 7.8 8.7 0.00 0.00 0.00 68 1014.2
20260506041855 54 263 5.2 7.8 0.00 0.00 0.00 69 1014.1
20260506041352 54 249 7.8 8.7 0.00 0.00 0.00 68 1014.1
20260506040849 54 249 6.1 7.0 0.00 0.00 0.00 68 1014.2
20260506040347 54 257 6.1 7.0 0.00 0.00 0.00 69 1014.1
20260506035842 54 251 10.4 12.2 0.00 0.00 0.00 69 1014.1
20260506035340 54 252 8.7 12.2 0.00 0.00 0.00 68 1014.1
20260506034837 54 238 7.8 9.6 0.00 0.00 0.00 68 1013.9
20260506034334 54 248 7.0 9.6 0.00 0.00 0.00 68 1013.6
20260506033831 54 255 9.6 13.0 0.00 0.00 0.00 68 1013.6
20260506033328 54 241 6.1 7.8 0.00 0.00 0.00 67 1014.1
20260506032825 55 251 7.0 7.8 0.00 0.00 0.00 66 1013.9
20260506032322 55 257 6.1 7.0 0.00 0.00 0.00 66 1013.8
20260506031819 55 244 7.8 7.8 0.00 0.00 0.00 66 1014.0
20260506031316 55 269 7.8 9.6 0.00 0.00 0.00 66 1013.3
20260506030814 55 259 6.1 7.0 0.00 0.00 0.00 65 1013.5
20260506030312 55 247 7.8 9.6 0.00 0.00 0.00 65 1013.8
20260506025808 55 260 7.0 8.7 0.00 0.00 0.00 65 1013.4
20260506025306 55 245 4.3 5.2 0.00 0.00 0.00 65 1013.5
20260506024802 56 251 9.6 9.6 0.00 0.00 0.00 65 1013.4
20260506024258 56 276 4.3 5.2 0.00 0.00 0.00 64 1013.4
20260506023754 56 266 5.2 6.1 0.00 0.00 0.00 64 1013.3
20260506023252 56 272 7.8 8.7 0.00 0.00 0.00 64 1013.0
20260506022748 56 285 9.6 11.3 0.00 0.00 0.00 63 1013.2
20260506022246 57 252 5.2 7.0 0.00 0.00 0.00 63 1013.1
20260506021744 57 278 4.3 5.2 0.00 0.00 0.00 62 1013.0
20260506021240 57 262 5.2 6.1 0.00 0.00 0.00 62 1013.1
20260506020737 57 222 7.0 8.7 0.00 0.00 0.00 61 1012.8
20260506020235 57 244 6.1 7.8 0.00 0.00 0.00 61 1013.0
20260506015733 58 264 11.3 13.9 0.00 0.00 0.00 61 1012.7
20260506015230 58 285 9.6 11.3 0.00 0.00 0.00 60 1012.9
20260506014727 58 256 11.3 13.9 0.00 0.00 0.00 58 1012.8
20260506014223 59 276 7.0 7.8 0.00 0.00 0.00 59 1012.6
20260506013720 58 264 7.8 9.6 0.00 0.00 0.00 57 1012.7
20260506013218 59 342 13.9 17.4 0.00 0.00 0.00 56 1012.7
20260506012714 59 180 11.3 15.6 0.00 0.00 0.00 56 1012.8
20260506012211 59 314 11.3 14.8 0.00 0.00 0.00 56 1012.9
20260506011708 59 281 12.2 14.8 0.00 0.00 0.00 58 1012.7
20260506011204 59 273 7.8 9.6 0.00 0.00 0.00 58 1012.9
20260506010703 59 267 14.8 17.4 0.00 0.00 0.00 58 1012.7
20260506010200 60 270 7.0 8.7 0.00 0.00 0.00 57 1012.6
20260506005657 60 299 10.4 13.0 0.00 0.00 0.00 55 1012.8
20260506005153 60 272 11.3 13.0 0.00 0.00 0.00 55 1012.6
20260506004649 60 252 9.6 13.0 0.00 0.00 0.00 56 1012.4
20260506004147 60 269 12.2 14.8 0.00 0.00 0.00 56 1012.5
20260506003643 60 273 8.7 9.6 0.00 0.00 0.00 54 1012.1
20260506003139 60 266 15.6 21.7 0.00 0.00 0.00 55 1012.5
20260506002635 60 277 16.5 19.1 0.00 0.00 0.00 54 1012.1
20260506002132 60 257 11.3 13.0 0.00 0.00 0.00 55 1012.1
20260506001627 60 287 12.2 14.8 0.00 0.00 0.00 54 1011.9
20260506001125 60 272 10.4 13.9 0.00 0.00 0.00 53 1011.8
20260506000622 62 270 10.4 17.4 0.00 0.00 0.00 51 1011.9
20260506000120 62 274 13.0 14.8 0.00 0.00 0.00 52 1012.0
20260505235618 62 251 12.2 14.8 0.00 0.00 0.00 51 1011.9
20260505235114 61 164 15.6 21.7 0.00 0.00 0.00 50 1011.8
20260505234612 61 223 11.3 14.8 0.00 0.00 0.00 52 1011.7
20260505234108 62 271 11.3 14.8 0.00 0.00 0.00 50 1011.7
20260505233606 63 285 10.4 12.2 0.00 0.00 0.00 51 1011.7
20260505233103 62 290 8.7 9.6 0.00 0.00 0.00 50 1011.7